This is the latest recevied weather packets stored in our database for station/object VANOK. If no packets are shown the sender has not sent any weather packets the latest 10 day(s).
| Time | Temp. | Humidity | Pressure | Rain* | Wind** | Luminosity | Snow |
|---|---|---|---|---|---|---|---|
| 1777924038 | 5° C | 99% | 1003.2 hPa | - | - | - | - |
| 1777922838 | 5° C | 100% | 1002.7 hPa | - | - | - | - |
| 1777921638 | 5° C | 99% | 1002.9 hPa | - | - | - | - |
| 1777920437 | 5° C | 99% | 1003.1 hPa | - | - | - | - |
| 1777919238 | 5.56° C | 98% | 1003.2 hPa | - | - | - | - |
| 1777918037 | 6.11° C | 94% | 1002.9 hPa | - | - | - | - |
| 1777916838 | 6.11° C | 94% | 1003 hPa | - | - | - | - |
| 1777915637 | 6.11° C | 92% | 1003 hPa | - | - | - | - |
| 1777914437 | 6.11° C | 91% | 1003.1 hPa | - | - | - | - |
| 1777913237 | 6.11° C | 92% | 1003 hPa | - | - | - | - |
| 1777912037 | 6.11° C | 91% | 1003.2 hPa | - | - | - | - |
| 1777910837 | 6.11° C | 89% | 1003 hPa | - | - | - | - |
| 1777909636 | 6.67° C | 89% | 1003.1 hPa | - | - | - | - |
| 1777908438 | 6.67° C | 88% | 1003.2 hPa | - | - | - | - |
| 1777907237 | 6.67° C | 87% | 1003.2 hPa | - | - | - | - |
| 1777906037 | 6.67° C | 86% | 1003.3 hPa | - | - | - | - |
| 1777904838 | 6.67° C | 87% | 1003.2 hPa | - | - | - | - |
| 1777903637 | 6.67° C | 85% | 1003.2 hPa | - | - | - | - |
| 1777902437 | 6.67° C | 87% | 1003.3 hPa | - | - | - | - |
| 1777901237 | 7.22° C | 83% | 1003.1 hPa | - | - | - | - |
| 1777900036 | 6.67° C | 86% | 1003.3 hPa | - | - | - | - |
| 1777898837 | 6.67° C | 88% | 1003.4 hPa | - | - | - | - |
| 1777897636 | 6.11° C | 87% | 1003.4 hPa | - | - | - | - |
| 1777896437 | 7.22° C | 89% | 1003.3 hPa | - | - | - | - |
| 1777895237 | 7.22° C | 87% | 1003.1 hPa | - | - | - | - |
* Rain since midnight (hover to see other rain measurements)
** Current wind speed in m/s (hover to see current wind gust speed)